Regional Weather Roundup
Issued by NWS

Home | Current Version | Previous Version | Graphics & Text | Print | Product List | Glossary On
Versions: 1 2 3 4 5 6 7 8 9 10 11 12 13 14 15 16 17 18 19 20 21 22 23 24 25 26 27 28 29 30 31 32 33 34 35 36 37 38 39 40 41 42 43 44 45 46 47 48 49 50
000
ASUS43 KFSD 012210
RWRSD

WEATHER ROUNDUP FOR SOUTH DAKOTA
NATIONAL WEATHER SERVICE SIOUX FALLS SD
500 PM CDT MON SEP 01 2014

NOTE: "FAIR" INDICATES FEW OR NO CLOUDS BELOW 12,000 FEET WITH NO
SIGNIFICANT WEATHER AND/OR OBSTRUCTIONS TO VISIBILITY.


SDZ001>005-009-010-012>017-012300-
NORTHWEST AND NORTH CENTRAL SOUTH DAKOTA

CITY           SKY/WX    TMP DP  RH WIND       PRES   REMARKS
BUFFALO          N/A     64  47  53 W12       29.84F
FAITH            N/A     67  50  54 W7        29.88R
MOBRIDGE       MOSUNNY   75  53  46 N14       29.79S
$$

SDZ012>016-024>037-041>051-057-063-072>074-012300-
SOUTHWEST AND SOUTH CENTRAL SOUTH DAKOTA

CITY           SKY/WX    TMP DP  RH WIND       PRES   REMARKS
RAPID CTY ARPT CLOUDY    61  53  75 N6        29.95F
PIERRE         MOSUNNY   78  49  35 NW13      29.80S
CUSTER         MOSUNNY   60  39  45 W12       30.01S
ELLSWORTH AFB  CLOUDY    61  52  71 NW7       29.94F
PHILIP         CLOUDY    71  48  43 SW8       29.87R
PINE RIDGE     TSTM      61  47  59 MISG      29.95R
WINNER         FAIR      78  46  32 CALM      29.84S
$$

SDZ004>011-016>023-039-040-012300-
NORTHEAST SOUTH DAKOTA

CITY           SKY/WX    TMP DP  RH WIND       PRES   REMARKS
ABERDEEN       MOSUNNY   74  55  51 W9        29.77S
WATERTOWN      MOSUNNY   74  53  48 SW14      29.80S
SISSETON         N/A     73  55  53 N7        29.75R
$$

SDZ017-020-022-023-036>040-048>070-012300-
SOUTHEAST SOUTH DAKOTA

CITY           SKY/WX    TMP DP  RH WIND       PRES   REMARKS
SIOUX FALLS    MOSUNNY   76  55  48 NW8       29.83F
HURON          PTSUNNY   73  52  47 SW8       29.80R
CHAMBERLAIN    PTSUNNY   76  51  41 N14G24    29.84R
MITCHELL       MOSUNNY   78  53  41 W5        29.82F
YANKTON        SUNNY     77  54  44 N7        29.83F
$$

ABBREVIATIONS USED IN REMARKS
   TC - TEMPERATURE IN CELSIUS
  WCI - WIND CHILL INDEX
   HX - HEAT INDEX
  VSB - VISIBILITY



USA.gov is the U.S. government's official web portal to all federal, state and local government web resources and services.